sat.trackr.live / text

‹ back to catalog

IRIDIUM 174

NORAD 56728 · 2023-068U

PAYLOAD ACTIVE UNKNOWN

§ Identity

Operator
Country
US
Launch date
2023-05-20
Launch site
AFWTR
Launch vehicle
Mass (kg)
RCS (m²)

Purposes: comms

External: N2YO · Heavens-Above · Gunter

§ Orbital elements

Epoch: 2026-09-19T10:10:35.274432Z

Period
97.81 min
Inclination
86.6104°
Eccentricity
0.0002579
Mean motion
14.72249692 rev/d
Perigee alt
652.1 km
Apogee alt
655.7 km
Semi-major
7,032.0 km
B*
4.9894e-5
RAAN
314.3165°
Arg perigee
89.9797°
Mean anomaly
270.1716°
Rev number
17,988

§ Raw data

IRIDIUM 1741 56728U 23068U   26262.42401938  .00000339  00000+0  49894-4 0  99982 56728  86.6104 314.3165 0002579  89.9797 270.1716 14.72249692179883

JSON: /api/v1/satellites/56728 · /tle

For live sub-satellite position, see the globe view (requires WebGL).

§ Visibility from observer

Set your observer location to see the next 7 days of passes ≥ 10°. The values pass through the URL so the page stays shareable.

No JS? Fill the form by hand. The geolocation button needs JavaScript.